STARLINK-1273, 45367

Orbit data source: Space-Track

STARLINK-1273, 45367 is a payload satellite owned by SpaceX/Seattle (US) in LEO that was launched on Wed, 18 Mar 2020 UTC via an FALCON 9 launch vehicle from the Air Force Eastern Test Range (AFETR). Payload-class satellites include a variety of spacecraft equipped with specific instruments for various scientific and technological missions. These include communications satellites like Starlink; space stations such as the ISS; scientific satellites like the Hubble; Earth observation satellites from companies like Planet Labs, Umbra, and HawkEye 360; GPS; miniature CubeSats for education and research; and military/defense satellites.

Loading next visibility...
Identifier
45367, 2020-019H
Orbit
LEO
Country
Flag of USUS
Related business
Manufacturer
SpaceX/Seattle
Mission
Operational Commercial Communications
Bus & Motor
STARLINK, Unknown motor
Mass
260 kg wet, ~248 kg dry
Launch date (UTC)
2020-03-18 (6 years ago)
Launch vehicle
FALCON 9
Launch site
Air Force Eastern Test Range (AFETR)
Object type
Payload
Rocket body
Debris
Shape & HBR
Box + 1 Pan, 10.1 m
Radar Cross Section
13.562 m², Large (>1 m²)

Expand to show TLE details & history
Last TLE update: 16 hours ago

TLE from 16 hours ago
0 STARLINK-1273
1 45367U 20019H   26013.02254560  .00002039  00000-0  12691-3 0  9999
2 45367  53.0571  56.2381 0001138  81.5673 278.5448 15.14174941321344
Epoch: 2026-01-13T00:32Z
TLE epoch observation values (Epoch: 2026-01-13T00:32:27.939Z)
Latitude
-0.00007°
Longitude
-64.38921°
Altitude
524.25 km
Speed
7.602 km/s
True Right ascension
03h 44m 57s
True Declination
0° 00' 00"
Sunlit
Object was in full shadow at epoch
Visualization orbit readout
Latitude
Unknown
Longitude
Unknown
Altitude
Unknown
Speed
Unknown
Apparent Right ascension
Unknown
Apparent Declination
Unknown
Sunlit
N/A
Visualization observer readout
Local Sidereal Time
17:02:39
Azimuth
Unknown
Elevation
Unknown
Doppler factor
Unknown
Orbital elements
Apogee altitude
524.541 km
Perigee altitude
522.97 km
Semi-major axis
6,901.893 km
Eccentricity
0.00011
Inclination
53.0571°
RAAN
56.2381°
Arg. of periapsis
81.5673°
True anomaly
278.5319°
Mean anomaly
278.5448°
Eccentric anomaly
278.53835°
Mean motion
3.78522 °/min
Orbital period
95.11 mins
BSTAR
0.00012691
Loading maneuver chart data...
Computing Atmospheric mass density...

Documentation

Showing up to 5 results
|